Location: Newark
(3.0500°N, 36.0167°E)
Time: 18:26:50
(UTC+00:00)

A-11 Canister half - Pass Details

Date: 25 August 2019
Orbit: 1527 x 1682 km, 47.3° (Epoch: 15 October)

Event Time Altitude Azimuth Distance (km) Brightness Sun altitude
Rises 07:24:45 0° 249° (WSW) 4,744 11.2 56.0°
Reaches altitude 10° 07:28:28 10° 261° (W) 3,782 10.8 56.9°
Maximum altitude 07:36:05 26° 314° (NW) 2,755 10.5 58.7°
Drops below altitude 10° 07:43:55 10° 7° (N) 3,874 11.4 60.6°
Sets 07:47:52 0° 20° (NNE) 4,881 11.9 61.6°
